Yoho Park AWS, British Columbia

10:22 PM MST on January 22, 2017 (GMT -0700)
Yoho Park AWS

Weather History for 71786 - December, 2013

Change the Weather History Date:

Sunday, December 15, 2013

  Actual Average Record
Temperature  
Mean Temperature 28 °F -  
Max Temperature 32 °F - - ()
Min Temperature 23 °F - - ()
Degree Days  
Heating Degree Days 38    
Moisture  
Dew Point 29 °F    
Average Humidity 98    
Maximum Humidity 100    
Minimum Humidity 93    
Precipitation  
Precipitation 0.04 in - - ()
Sea Level Pressure  
Sea Level Pressure 29.94 in    
Wind  
Wind Speed 16 mph ()    
Max Wind Speed 23 mph    
Max Gust Speed 36 mph    
T = Trace of Precipitation, MM = Missing Value Source: Averaged Metar Reports

Daily Weather History Graph

Daily Weather History Graph

Search for Another Location

Airport or City:

Trip Planner

Search our weather history database for the weather conditions in past years. The results will help you decide how hot, cold, wet, or windy it might be!

Date:

Astronomy

Dec. 15, 2013 Rise Set
Actual Time 8:44 AM MST 4:36 PM MST
Civil Twilight 8:04 AM MST 5:16 PM MST
Nautical Twilight 7:21 AM MST 6:00 PM MST
Astronomical Twilight 6:40 AM MST 6:40 PM MST
Moon 3:52 PM MST (12/15) 6:56 AM MST (12/15)
Length of Visible Light 9h 12m
Length of Day
7h 52m
Waxing Gibbous, 98% of the Moon is Illuminated
Dec 15
Waxing Gibbous
Dec 17
Full
Dec 25
Last Quarter
Jan 1
New
Jan 7
First Quarter

Hourly Weather History & Observations

Time (MST) Temp. Windchill Dew Point Humidity Pressure Visibility Wind Dir Wind Speed Gust Speed Precip Events Conditions
12:00 AM 26.6 °F 15.7 °F 26.6 °F 100% 30.06 in - West 12.7 mph - 0.01 in   Unknown
1:00 AM 26.4 °F 15.0 °F 26.4 °F 100% 30.05 in - West 13.8 mph - 0.01 in   Unknown
2:00 AM 26.2 °F 13.0 °F 26.1 °F 99% 30.04 in - West 18.4 mph - 0.01 in   Unknown
3:00 AM 26.8 °F 13.7 °F 26.8 °F 100% 30.02 in - West 18.4 mph - N/A   Unknown
4:00 AM 27.0 °F 13.9 °F 27.0 °F 100% 30.00 in - West 18.4 mph - 0.01 in   Unknown
5:00 AM 27 °F - 27 °F 99% 29.96 in - West 17.3 mph - -  
5:00 AM 27.0 °F 14.3 °F 26.8 °F 99% 29.96 in - West 17.3 mph - 0.01 in   Unknown
6:00 AM 29.3 °F 17.7 °F 29.3 °F 100% 29.94 in - West 16.1 mph - 0.02 in   Unknown
7:00 AM 28.2 °F 16.8 °F 28.0 °F 99% 29.94 in - West 15.0 mph - 0.01 in   Unknown
8:00 AM 28.8 °F 16.2 °F 28.6 °F 99% 29.93 in - West 18.4 mph 25.3 mph N/A   Unknown
9:00 AM 28.9 °F 16.5 °F 28.8 °F 99% 29.93 in - WSW 18.4 mph 27.6 mph N/A   Unknown
10:00 AM 29.7 °F 16.7 °F 29.1 °F 98% 29.91 in - West 20.7 mph 28.8 mph N/A   Unknown
11:00 AM 30 °F - 29 °F 97% 29.91 in - WSW 23.0 mph - -  
11:00 AM 30.4 °F 17.0 °F 29.5 °F 96% 29.91 in - WSW 23.0 mph 31.1 mph N/A   Unknown
12:00 PM 31.5 °F 18.8 °F 29.7 °F 93% 29.89 in - WSW 21.9 mph 27.6 mph N/A   Unknown
1:00 PM 31.5 °F 18.5 °F 29.8 °F 94% 29.86 in - WSW 23.0 mph 35.7 mph N/A   Unknown
2:00 PM 31.6 °F 19.0 °F 29.8 °F 93% 29.84 in - WSW 21.9 mph 28.8 mph N/A   Unknown
3:00 PM 30.9 °F 19.8 °F 30.0 °F 96% 29.87 in - WSW 16.1 mph 21.9 mph N/A   Unknown
4:00 PM 30.4 °F 18.4 °F 29.8 °F 98% 29.88 in - WSW 18.4 mph 25.3 mph N/A   Unknown
5:00 PM 30 °F - 30 °F 99% 29.91 in - WSW 18.4 mph - -  
5:00 PM 30.0 °F 17.9 °F 29.8 °F 99% 29.91 in - WSW 18.4 mph - N/A   Unknown
6:00 PM 29.8 °F 18.0 °F 29.7 °F 99% 29.91 in - WSW 17.3 mph 25.3 mph 0.01 in   Unknown
7:00 PM 29.7 °F 17.8 °F 29.5 °F 99% 29.91 in - WSW 17.3 mph 23.0 mph 0.01 in   Unknown
8:00 PM 29.3 °F 17.0 °F 28.9 °F 99% 29.92 in - West 18.4 mph 26.5 mph 0.01 in   Unknown
9:00 PM 28.6 °F 15.6 °F 28.2 °F 99% 29.92 in - West 19.6 mph 28.8 mph 0.01 in   Unknown
10:00 PM 28.2 °F 16.8 °F 28.0 °F 99% 29.94 in - WSW 15.0 mph - N/A   Unknown
11:00 PM 28 °F - 28 °F 97% 29.96 in - WSW 18.4 mph - -  
11:00 PM 28.4 °F 15.8 °F 29.3 °F 100% 29.96 in - WSW 18.4 mph 27.6 mph 0.01 in   Unknown